Regional Weather Roundup
Issued by NWS Cleveland, OH

Home | Current Version | Previous Version | Graphics & Text | Print | Product List | Glossary On
Versions: 1 2 3 4 5 6 7 8 9 10 11 12 13 14 15 16 17 18 19 20 21 22 23 24 25 26 27 28 29 30 31 32 33 34 35 36 37 38 39 40 41 42 43 44 45 46 47 48 49 50
000
ASUS41 KCLE 291102
RWRCLE
OHIO REGIONAL WEATHER ROUNDUP
NATIONAL WEATHER SERVICE CLEVELAND, OH
700 AM EDT SAT APR 29 2017

NOTE: "FAIR" INDICATES FEW OR NO CLOUDS BELOW 12,000 FEET WITH NO
SIGNIFICANT WEATHER AND/OR OBSTRUCTIONS TO VISIBILITY.

OHZ001>008-015>018-024>027-034-035-043-044-291200-
   NORTHWEST OHIO

CITY           SKY/WX    TMP DP  RH WIND       PRES   REMARKS
DEFIANCE       CLOUDY    54  52  93 NE3       30.03R
FINDLAY        RAIN      57  53  86 NE6       30.02R FOG
TOLEDO EXPRESS CLOUDY    54  54 100 CALM      30.03R
TOLEDO EXEC    CLOUDY    56  55  97 N3        30.03R FOG
LIMA           RAIN      56  56 100 E7        30.00R FOG
$$

OHZ009>014-019>023-028>033-038-089-291200-
   NORTHEAST OHIO

CITY           SKY/WX    TMP DP  RH WIND       PRES   REMARKS
CLE-HOPKINS    CLOUDY    57  53  86 N7        30.04R
CLE-LAKEFRONT  CLOUDY    55  53  93 E3        30.02R FOG
CUY CO. ARPT   CLOUDY    55  55 100 CALM      30.03  FOG
LORAIN-ELYRIA  CLOUDY    55  52  89 SE3       30.02R FOG
ASHTABULA      CLOUDY    55  55 100 CALM      30.04R FOG
AKRON-CANTON   CLOUDY    56  52  86 NW3       30.02R
WOOSTER        LGT RAIN  54  52  93 N3        30.04R
MANSFIELD      LGT RAIN  55  55 100 NE5       30.00R FOG
YOUNGSTOWN     CLOUDY    55  53  93 CALM      30.04R
$$

OHZ042-051>053-060>062-070>072-077>081-291200-
  SOUTHWEST OHIO

CITY           SKY/WX    TMP DP  RH WIND       PRES   REMARKS
CINC-COVINGTON CLOUDY    63  62  97 S3        29.97R
CINC-LUNKEN    LGT RAIN  63  63 100 SE3       29.98R
HAMILTON       LGT RAIN  65  64  97 CALM      29.97F
DAYTON         CLOUDY    60  60 100 S6        29.98F FOG
WRIGHT-PAT AFB CLOUDY    61  61 100 SE6       29.97R FOG
DAYTON GENERAL CLOUDY    64  63  96 S10       29.98R
WILMINGTON     CLOUDY    63  63 100 SW13      30.01R
$$

OHZ036-037-039>041-045>050-054>059-063>069-073>076-082>088-291200-
  CENTRAL AND SOUTHEAST OHIO

CITY           SKY/WX    TMP DP  RH WIND       PRES   REMARKS
COLUMBUS       CLOUDY    61  61 100 E7        29.95F
OSU AIRPORT    CLOUDY    60  60 100 E7        29.95F FOG
BOLTON FIELD   CLOUDY    60  60 100 CALM      29.99R FOG
RICKENBACK AFB NOT AVBL
NEWARK         LGT RAIN  61  60  97 VRB3      29.99F
MARION         LGT RAIN  58  56  93 CALM      30.00F FOG
LANCASTER      LGT RAIN  63  60  90 SE17G26   29.93F
ZANESVILLE     LGT RAIN  62  59  90 S9        30.05R
NEW PHILLY     NOT AVBL
$$




USA.gov is the U.S. government's official web portal to all federal, state and local government web resources and services.